Welcome to the New NWS' Forecast!
Most changes are behind the scenes, but click here for differences you might notice.
Latest weather observations around

Joplin, Joplin Regional Airport (KJLN)

Using English Units (Switch to International System of Units)
Date/ Time (CST) Wind (mph) Vis. (mi) Weather Sky Cond. Temp (°F) Rel. Humidity Wind Chill (°F) Heat Index (°F) Pressure Precip. (in)
Air Dwpt 6 hour Altimeter (inHg) Sea level (inHg) 1 hr 3 hr 6 hr
Max Min
Jan 21 09:53   10 Mostly Clear FEW023 64 56     75%     29.83 29.82      
Jan 21 08:53 S 22 10 Clear and Windy CLR 60 55     83%     29.83 29.82      
Jan 21 07:53 S 20 10 Clear and Windy CLR 57 55     93%     29.82 29.81      
Jan 21 06:53 S 18 10 Clear CLR 57 54     89%     29.83 29.82      
Jan 21 05:53 S 18 10 Clear CLR 56 54     93%     29.83 29.82      
Jan 21 04:53 S 16 10 Clear CLR 55 53     93%     29.84 29.82      
Jan 21 03:53 S 16 10 Mostly Clear FEW021 54 52     93%     29.84 29.83      
Jan 21 03:12 S 13 10 Partly Cloudy SCT022 53 52     96%     29.85        
Jan 21 02:53 S 10 10 Mostly Cloudy BKN022 53 52     96%     29.85 29.84      
Jan 21 02:46 S 10 10 Mostly Cloudy BKN022 54 52     93%     29.86        
Jan 21 01:53 S 8 10 Clear CLR 52 51     97%     29.85 29.84      
Jan 21 00:53 S 9 10 Clear CLR 52 51     97%     29.86 29.85      
Jan 20 23:53 S 11 10 Clear CLR 53 50     89%     29.86 29.85      
Jan 20 22:53 S 13 10 Clear CLR 54 50     86%     29.86 29.85      
Jan 20 22:20 S 16 10 Partly Cloudy SCT023 54 50     86%     29.86        
Jan 20 21:53 S 17 10 Mostly Cloudy BKN026 BKN030 55 50     83%     29.87 29.86      
Jan 20 21:38   10 Mostly Cloudy BKN026 55 50     83%     29.87        
Jan 20 20:53 S 17 10 Clear CLR 54 49     83%     29.87 29.86      
Jan 20 19:53   10 Clear CLR 56 48     75%     29.87 29.86      
Jan 20 18:53 S 13 10 Clear CLR 57 48     72%     29.86 29.86      
Jan 20 17:53 S 8 10 Clear CLR 55 46     72%     29.86 29.85      
Jan 20 16:53 S 16 10 Clear CLR 63 47     56%     29.84 29.83      
Jan 20 15:53 S 17 10 Clear CLR 64 47     54%     29.83 29.82      
Jan 20 14:53 S 16 10 Clear CLR 64 47     54%     29.83 29.82      
Jan 20 13:53 S 20 10 Clear and Windy CLR 63 47     56%     29.84 29.83      
Jan 20 12:53 S 17 10 Partly Cloudy SCT025 61 48     62%     29.87 29.86      
Jan 20 12:36 S 16 10 Partly Cloudy SCT025 59 48     67%     29.88        
Jan 20 11:53 SSW 17 10 Cloudy OVC022 56 48     75%     29.92 29.92      
Jan 20 10:53 S 17 10 Cloudy OVC021 54 48     80%     29.94 29.94      
Jan 20 10:18 S 15 10 Cloudy OVC021 53 48     83%     29.95        
Jan 20 09:53 S 14 10 Cloudy OVC013 52 48     86%     29.96 29.96      
Jan 20 08:53 S 13 10 Cloudy OVC013 51 48     89%     29.95 29.95      
Jan 20 07:53 S 11 10 Cloudy OVC013 50 47     89% 46   29.94 29.94      
Jan 20 06:53 S 15 10 Cloudy OVC013 50 47     89% 45   29.93 29.93      
Jan 20 06:39 SSW 15 10 Cloudy OVC013 51 47     86%     29.93        
Jan 20 05:53   10 Cloudy OVC016 51 46     83%     29.92 29.92      
Jan 20 04:53 S 21 10 Cloudy and Windy OVC018 50 46     86% 43   29.92 29.91      
Jan 20 03:53 SSW 20 10 Cloudy and Windy OVC019 50 45     83% 44   29.92 29.92      
Jan 20 02:53 SSW 16 10 Mostly Cloudy BKN021 49 43     80% 43   29.94 29.93      
Jan 20 01:53 SSW 17 10 Mostly Clear FEW022 48 43     83% 42   29.93 29.93      
Jan 20 00:53 SSW 16 10 Clear CLR 46 42     86% 39   29.94 29.94      
Jan 19 23:53 S 18 10 Clear CLR 45 40     82% 37   29.94 29.94      
Jan 19 22:53 S 17 10 Clear CLR 45 38     76% 38   29.94 29.95      
Jan 19 21:53 S 17 10 Clear CLR 45 35     68% 38   29.94 29.95      
Jan 19 20:53   10 Clear CLR 46 33     60%     29.92 29.92      
Jan 19 19:53 S 16 10 Clear CLR 46 31     55% 39   29.91 29.93      
Jan 19 18:53 S 15 10 Clear CLR 46 31     55% 40   29.91 29.92      
Jan 19 17:53 S 11 10 Clear CLR 46 30     53% 41   29.91 29.92      
Jan 19 16:53 S 13 10 Clear CLR 50 30     46% 45   29.92 29.92      
Jan 19 15:53 S 15 10 Clear CLR 52 29     41%     29.92 29.93      
Jan 19 14:53 S 15 10 Clear CLR 54 29     38%     29.92 29.93      
Jan 19 13:53   10 Clear CLR 52 28     39%     29.95 29.95      
Jan 19 12:53   10 Clear CLR 49 26     41%     29.98 29.98      
Jan 19 11:53 S 14 10 Clear CLR 45 26     47% 39   30.02 30.03      
Jan 19 10:53 S 14 10 Clear CLR 41 25     53% 33   30.06 30.07      
Jan 19 08:53 SSW 15 10 Clear CLR 35 21     56% 26   30.06 30.07      
Jan 19 07:53 SSW 16 10 Clear CLR 32 19     58% 21   30.06 30.08      
Jan 19 06:53 SSW 17 10 Clear CLR 32 17     54% 21   30.07 30.09      
Jan 19 05:53 S 16 10 Clear CLR 30 16     55% 19   30.08 30.09      
Jan 19 04:53 SSW 13 10 Clear CLR 31 15     51% 21   30.1 30.11      
Jan 19 03:53 SSW 16 10 Clear CLR 31 15     51% 20   30.1 30.11      
Jan 19 02:53 SSW 16 10 Clear CLR 32 15     49% 21   30.12 30.13      
Jan 19 01:53 SSW 18 10 Clear CLR 33 15     47% 22   30.13 30.14      
Jan 19 00:53 SSW 17 10 Clear CLR 33 15     47% 22   30.14 30.16      
Jan 18 23:53 SSW 17 10 Clear CLR 34 15     45% 23   30.15 30.17      
Jan 18 22:53   10 Clear CLR 34 13     41%     30.17 30.19      
Jan 18 21:53 SSW 15 10 Clear CLR 34 14     43% 24   30.17 30.19      
Jan 18 20:53 SSW 14 10 Clear CLR 34 15     45% 25   30.2 30.22      
Jan 18 19:53 S 11 10 Clear CLR 35 17     47% 27   30.19 30.21      
Jan 18 18:53 S 11 10 Clear CLR 37 19     48% 29   30.2 30.22      
Jan 18 17:53 S 11 10 Clear CLR 36 22     56% 28   30.18 30.21      
Jan 18 16:53 SSW 13 10 Clear CLR 41 22     46% 34   30.18 30.2      
Jan 18 15:53 S 17 10 Clear CLR 42 22     44% 34   30.18 30.2      
Jan 18 14:53 SSW 18 10 Clear CLR 41 20     43% 32   30.21 30.23      
Jan 18 13:53   10 Clear CLR 39 18     42%     30.25 30.27      
Jan 18 12:53 SSW 15 10 Clear CLR 37 16     42% 28   30.28 30.31      
Jan 18 11:53 SSW 17 10 Clear CLR 34 14     43% 23   30.32 30.35      
Jan 18 09:53 SSW 18 10 Clear CLR 27 11     50% 14   30.38 30.42      
Jun 12 01:53 S 9 10 Clear CLR 73 65     76%   74 29.92 29.88      
Jun 11 21:53 S 10 10 Clear CLR 79 65     62%   80 29.9 29.86      
Jun 11 11:53   10 Partly Cloudy SCT032 84 71     65%   89 29.94 29.9      
Jun 11 10:53   10 Clear CLR 83 70     65%   87 29.93 29.89      
Jun 10 19:53 S 15 10 Clear CLR 81 67     62%   83 29.83 29.79      
Jun 10 17:53   10 Clear CLR 85 68     57%   88 29.82 29.79      
Jun 10 11:53   10 Clear CLR 82 67     60%   85 29.9 29.86      
Jun 09 14:53 S 13 10 Partly Cloudy SCT055 80 61     52%   81 29.91 29.89      
Jun 09 00:53 SE 3 10 Clear CLR 60 55     83%     29.94 29.91      
Jun 08 23:53 S 3 10 Clear   62 56     80%     29.94 29.92      
Jun 08 12:53 WNW 5 10 Clear CLR 79 53     41%   78 30.05 30.03      
Jun 08 06:53 Calm 10 Clear CLR 56 53     90%     30.06 30.04      
Jun 07 21:53 Calm 10 Clear CLR 64 56     75%     30.05 30.02      
Jun 07 14:53 NNE 9 10 Clear CLR 81 52     37%   80 30.06 30.03      
Jun 07 11:53 E 9 10 Mostly Clear FEW060 79 49     35%   78 30.09 30.07      
Jun 06 11:53 N 5 10 Clear CLR 82 64     55%   84 29.96 29.93      
Jun 06 10:53 N 5 10 Clear CLR 79 66     65%   80 29.96 29.92      
Notice The following observation data may not be complete
Jun 06 04:02   2 Fog/Mist CLR          %              
Jun 05 19:53 Calm 10 Mostly Cloudy BKN075 84 70     63%   88 29.83 29.79